Torna al catalogo

STARLINK-38121

AttivoComunicazioniSSO
NORAD 100156·PAYLOAD·🇺🇸 United States

Lanciato Jul 25, 2026 da Vandenberg Space Force Base

Loading…

Prossimi Passaggi (prossime 24 ore)

TLE

AggiornatoSource: Space-Track

Epoca: Sep 14, 2026, 12:56 UTC

1 A0156U 26171J   26257.53893455  .00012685  00000-0  35278-3 0  9993
2 A0156  97.2833 290.0835 0001540  90.0080 270.1341 15.36976122  7984

Traccia STARLINK-38121 in tempo reale con AllMySat

Download on the App Store